| time (UTC) | temp F | wind direction | speed knots | gust knots | rain 1hr in | rain 24hr in | rain mn in | humidity % | barometer mb |
| 20260509043037 | 65 | 252 | 2.6 | 6.1 | 0.00 | 1.14 | 0.10 | 80 | 1003.1 |
| 20260509040014 | 67 | 261 | 5.2 | 11.3 | 0.00 | 1.14 | 0.10 | 78 | 1003.4 |
| 20260509033015 | 67 | 304 | 7.0 | 13.0 | 0.00 | 1.14 | 0.10 | 77 | 1003.9 |
| 20260509030016 | 68 | 267 | 6.1 | 10.4 | 0.00 | 1.14 | 0.10 | 77 | 1003.9 |
| 20260509023022 | 69 | 251 | 7.0 | 10.4 | 0.00 | 1.14 | 0.10 | 73 | 1003.6 |
| 20260509020027 | 69 | 295 | 3.5 | 13.9 | 0.00 | 1.14 | 0.10 | 73 | 1003.6 |
| 20260509013028 | 69 | 312 | 5.2 | 13.9 | 0.00 | 1.14 | 0.10 | 75 | 1003.8 |
| 20260509010023 | 66 | 275 | 5.2 | 12.2 | 0.00 | 1.14 | 0.10 | 81 | 1004.3 |
| 20260509003019 | 68 | 260 | 4.3 | 14.8 | 0.00 | 1.14 | 0.10 | 78 | 1004.7 |
| 20260509000034 | 66 | 315 | 4.3 | 8.7 | 0.00 | 1.14 | 0.10 | 85 | 1005.4 |
| 20260508233023 | 64 | 265 | 2.6 | 5.2 | 0.39 | 1.14 | 0.10 | 92 | 1005.9 |
| 20260508230040 | 63 | 277 | 0.9 | 6.1 | 0.39 | 1.14 | 0.10 | 90 | 1006.2 |
| 20260508223022 | 68 | 285 | 7.8 | 13.0 | 0.00 | 0.75 | 0.02 | 78 | 1006.3 |
| 20260508220017 | 66 | 269 | 4.3 | 12.2 | 0.00 | 0.75 | 0.02 | 86 | 1006.3 |
| 20260508213027 | 65 | 250 | 4.3 | 10.4 | 0.00 | 0.75 | 0.02 | 92 | 1006.3 |
| 20260508210036 | 62 | 268 | 2.6 | 8.7 | 0.00 | 0.75 | 0.02 | 97 | 1006.2 |
| 20260508203021 | 61 | 284 | 1.7 | 5.2 | 0.00 | 0.75 | 0.02 | 98 | 1006.1 |
| 20260508200037 | 59 | 275 | 1.7 | 5.2 | 0.00 | 0.75 | 0.02 | 97 | 1006.0 |
| 20260508193019 | 59 | 281 | 1.7 | 3.5 | 0.00 | 0.75 | 0.02 | 97 | 1006.0 |
| 20260508190036 | 59 | 264 | 2.6 | 7.0 | 0.00 | 0.75 | 0.02 | 97 | 1005.6 |
| 20260508183030 | 59 | 305 | 0.9 | 3.5 | 0.00 | 0.75 | 0.02 | 97 | 1005.6 |
| 20260508180030 | 59 | 312 | 1.7 | 3.5 | 0.00 | 0.75 | 0.02 | 97 | 1005.6 |
| 20260508173052 | 59 | 299 | 0.9 | 4.3 | 0.00 | 0.75 | 0.02 | 97 | 1005.6 |
| 20260508170021 | 59 | 318 | 0.0 | 1.7 | 0.00 | 0.75 | 0.02 | 96 | 1005.6 |
| 20260508163040 | 59 | 314 | 0.0 | 1.7 | 0.00 | 0.75 | 0.02 | 96 | 1005.8 |
| 20260508160032 | 59 | 297 | 0.9 | 3.5 | 0.00 | 0.75 | 0.02 | 96 | 1005.9 |
| 20260508153023 | 60 | 305 | 1.7 | 4.3 | 0.00 | 0.75 | 0.02 | 96 | 1006.1 |
| 20260508150020 | 60 | 235 | 0.9 | 3.5 | 0.00 | 0.75 | 0.02 | 96 | 1006.0 |
| 20260508143041 | 60 | 308 | 0.9 | 3.5 | 0.00 | 0.75 | 0.02 | 96 | 1006.3 |
| 20260508140019 | 60 | 10 | 2.6 | 3.5 | 0.04 | 0.75 | 0.02 | 96 | 1006.5 |
| 20260508133023 | 59 | 277 | 1.7 | 6.1 | 0.12 | 0.75 | 0.02 | 96 | 1007.0 |
| 20260508130041 | 60 | 358 | 1.7 | 5.2 | 0.08 | 0.71 | 0.02 | 95 | 1006.8 |
| 20260508123017 | 60 | 232 | 7.8 | 14.8 | 0.43 | 0.63 | 0.00 | 95 | 1006.9 |
| 20260508120030 | 61 | 242 | 5.2 | 13.0 | 0.43 | 0.63 | 0.13 | 94 | 1007.3 |
| 20260508113023 | 65 | 331 | 13.0 | 23.5 | 0.00 | 0.20 | 0.04 | 94 | 1006.5 |
| 20260508110019 | 66 | 5 | 11.3 | 24.3 | 0.00 | 0.20 | 0.04 | 94 | 1006.8 |
| 20260508103037 | 66 | 346 | 15.6 | 21.7 | 0.04 | 0.20 | 0.04 | 94 | 1007.3 |
| 20260508100028 | 66 | 327 | 13.9 | 19.1 | 0.16 | 0.20 | 0.04 | 94 | 1007.6 |
| 20260508093053 | 65 | 330 | 10.4 | 19.1 | 0.12 | 0.16 | 0.03 | 94 | 1008.2 |
| 20260508090048 | 66 | 5 | 7.0 | 16.5 | 0.00 | 0.04 | 0.01 | 94 | 1008.2 |